User: anonymous   Login
Location: Caltech
(34.1382°N, 118.1253°W)
Time: 13:54:40
(UTC-08:00)
Language:

ALOS - Orbit

View from above orbital plane
View from above orbital plane
View from above satellite
View from above satellite

Ground track
Ground track

The orbit data is extracted from the following two-line orbital elements,

1 28931U 06002A   17327.49371786  .00000248  00000-0  57665-4 0  9993
2 28931  97.8317 346.7877 0001688 109.6911 250.4477 14.62426422630744
Epoch (UTC): 23 November 2017 11:50:57
Eccentricity: 0.0001688
inclination: 97.8317°
perigee height: 684 km
apogee height: 686 km
right ascension of ascending node: 346.7877°
argument of perigee: 109.6911°
revolutions per day: 14.62426422
mean anomaly at epoch: 250.4477°
orbit number at epoch: 63074

The dashed part of the orbit path shows where the satellite is in the earth's shadow,  

DLR